Location: Kershaw
(34.5481°N, 80.5823°W)
Time: 16:35:01
(UTC+00:00)

Courier 1B Rocket - Pass Details

Date: 29 September 2022
Orbit: 920 x 1202 km, 28.2° (Epoch: 08 December)

Event Time Altitude Azimuth Distance (km) Brightness Sun altitude
Rises 07:37:09 0° 262° (W) 3,576 - -43.6°
Reaches altitude 10° 07:40:45 10° 242° (WSW) 2,662 - -42.9°
Maximum altitude 07:44:33 16° 205° (SSW) 2,270 - -42.3°
Drops below altitude 10° 07:48:29 10° 169° (S) 2,755 - -41.6°
Sets 07:52:20 0° 149° (SSE) 3,762 - -41.0°
